User: anonymous   Login
Location: Unspecified
(0.0000°N, 0.0000°E)
Time: 19:00:49
(UTC+00:00)
Language:

Injun 5 (Explorer 40) - Orbit

View from above orbital plane
View from above orbital plane
View from above satellite
View from above satellite

Ground track
Ground track

The orbit data is extracted from the following two-line orbital elements,

1  3338U 68066B   17084.64574537 +.00000068 +00000-0 +66578-4 0  9994
2  3338 080.6616 142.2044 1132197 357.8842 001.7639 12.22815239166301
Epoch (UTC): 25 March 2017 15:29:52
Eccentricity: 0.1132197
inclination: 80.6616°
perigee height: 679 km
apogee height: 2481 km
right ascension of ascending node: 142.2044°
argument of perigee: 357.8842°
revolutions per day: 12.22815239
mean anomaly at epoch: 1.7639°
orbit number at epoch: 16630

The dashed part of the orbit path shows where the satellite is in the earth's shadow,  

DLR